Volver al catálogo

STARLINK-34337

ActivoComunicacionesVLEO
NORAD 64223·PAYLOAD·🇺🇸 United States

Lanzado May 31, 2025 desde Vandenberg Space Force Base

Loading…

Próximos Pases (próximas 24 horas)

TLE

ActualizadoSource: CelesTrak SupGP

Época: Sep 15, 2026, 04:02 UTC

1 64223C 25117W   26258.16854167 -.00044108  00000+0 -13032-2 0  2581
2 64223  53.1579 236.4610 0001402  88.7319  88.0101 15.34410906    16

Sigue STARLINK-34337 en tiempo real con AllMySat

Download on the App Store